Location: Hamburg
(53.5554°N, 9.9941°E)
Time: 17:51:28
(UTC+02:00)

ISS - Pass Details

Date: 04 January 2018
Orbit: 402 x 408 km, 51.6° (Epoch: 23 July)

Event Time Altitude Azimuth Distance (km) Brightness Sun altitude
Exits shadow 05:24:50 24° 107° (ESE) 916 -1.4 -26.9°
Drops below altitude 10° 05:26:29 10° 90° (E) 1,503 0.1 -26.7°
Sets 05:28:40 0° 82° (E) 2,373 1.3 -26.3°
